User: anonymous   Login
Location: Myra
(43.4160°N, 88.0960°W)
Time: 16:28:40
(UTC-06:00)
Language:

SL-8 R/B - Orbit

View from above orbital plane
View from above orbital plane
View from above satellite
View from above satellite

Ground track
Ground track

The orbit data is extracted from the following two-line orbital elements,

1 33066U 08031G   14327.08862775  .00000311  00000-0  85519-4 0  9481
2 33066 048.4416 172.3554 0007564 120.6097 021.3426 14.68978778344959
Epoch (UTC): 23 November 2014 02:07:37
Eccentricity: 0.0007564
inclination: 48.4416°
perigee height: 659 km
apogee height: 669 km
right ascension of ascending node: 172.3554°
argument of perigee: 120.6097°
revolutions per day: 14.68978778
mean anomaly at epoch: 21.3426°
orbit number at epoch: 34495

The dashed part of the orbit path shows where the satellite is in the earth's shadow,  

DLR